User: anonymous   Login
Location: Unspecified
(0.0000°N, 0.0000°E)
Time: 01:58:51
(UTC+00:00)
Language:

RASAT - Orbit

View from above orbital plane
View from above orbital plane
View from above satellite
View from above satellite

Ground track
Ground track

The orbit data is extracted from the following two-line orbital elements,

1 37791U 11044D   17147.83959863 +.00000024 +00000-0 +13565-4 0  9998
2 37791 098.1345 239.9824 0021722 182.0245 178.0867 14.64602567308797
Epoch (UTC): 27 May 2017 20:09:01
Eccentricity: 0.0021722
inclination: 98.1345°
perigee height: 663 km
apogee height: 693 km
right ascension of ascending node: 239.9824°
argument of perigee: 182.0245°
revolutions per day: 14.64602567
mean anomaly at epoch: 178.0867°
orbit number at epoch: 30879

The dashed part of the orbit path shows where the satellite is in the earth's shadow,  

DLR